Location: Baia de Cri?
(46.1667°N, 22.7167°E)
Time: 02:48:04
(UTC+00:00)

ISS - Visible Passes

Search period start: 09 March 2026 00:00
Search period end: 19 March 2026 00:00
Orbit: 416 x 427 km, 51.6° (Epoch: 8 March)

Date Brightness Start Highest point End Pass type
(mag) Time Alt. Az. Time Alt. Az. Time Alt. Az.
10 Mar -1.8 17:56:19 10° S 17:57:40 17° SSE 17:57:40 17° SSE visible
11 Mar -1.6 17:10:24 10° SSE 17:12:01 13° SE 17:13:20 11° ESE visible
11 Mar -1.7 18:44:58 10° SW 18:46:23 23° SW 18:46:23 23° SW visible
12 Mar -3.5 17:58:01 10° SW 18:01:19 49° SE 18:01:52 44° ESE visible
13 Mar -2.8 17:11:15 10° SSW 17:14:18 32° SE 17:17:10 11° ENE visible
13 Mar -2.4 18:47:42 10° W 18:50:11 40° WNW 18:50:11 40° WNW visible
14 Mar -3.6 18:00:27 10° WSW 18:03:51 73° NNW 18:05:20 31° NE visible
14 Mar -0.4 19:37:57 10° WNW 19:38:21 12° WNW 19:38:21 12° WNW visible
15 Mar -3.8 17:13:18 10° WSW 17:16:42 78° SSE 17:20:06 10° ENE visible
15 Mar -2.2 18:50:36 10° WNW 18:53:21 34° NNW 18:53:21 34° NNW visible
16 Mar -2.7 18:03:14 10° W 18:06:29 41° NNW 18:08:15 22° NE visible
16 Mar -0.4 19:40:44 10° WNW 19:41:15 13° NW 19:41:15 13° NW visible
17 Mar -3.0 17:15:52 10° W 17:19:12 52° NNW 17:22:32 10° ENE visible
17 Mar -2.0 18:53:25 10° WNW 18:56:03 30° NNW 18:56:03 30° NNW visible
18 Mar -2.3 18:06:02 10° WNW 18:09:08 32° N 18:10:48 20° NE visible
18 Mar -0.4 19:43:14 10° WNW 19:43:47 14° NW 19:43:47 14° NW visible
